FIN4CE EGLL-EFHK

Flight info

Callsign FIN4CE
Flight time N/A
Altitude 41000
Route BPK Q295 PAAVO M604 GIVPO DCT LARGA DCT SOPTO DCT LOBBI DCT PELUP DCT ALAMI DCT OKEVU DCT EVADI Y370 DIVAM
Aircraft A359/H-SDE2E3GHIJ3J4J5LM1ORWXY/LB1D1

Departure

Time 2026-05-04 18:57
Airport London Heathrow Airport (EGLL)

Arrival

Time N/A
Airport Helsinki Vantaa Airport (EFHK)
Time Latitude Longitude Altitude Speed Heading
2026-05-04 18:17 51.47433 -0.46411 96 ft 0 kts 180°
2026-05-04 18:27 51.47449 -0.46411 95 ft 4 kts 180°
2026-05-04 18:27 51.47475 -0.46411 93 ft 3 kts 180°
2026-05-04 18:28 51.47497 -0.46410 93 ft 4 kts 200°
2026-05-04 18:28 51.47514 -0.46387 93 ft 4 kts 257°
2026-05-04 18:28 51.47516 -0.46347 93 ft 4 kts 269°
2026-05-04 18:28 51.47516 -0.46319 91 ft 0 kts 269°
2026-05-04 18:36 51.47516 -0.46326 93 ft 4 kts 269°
2026-05-04 18:36 51.47510 -0.46497 96 ft 27 kts 267°
2026-05-04 18:36 51.47496 -0.46803 96 ft 26 kts 266°
2026-05-04 18:36 51.47492 -0.47085 92 ft 25 kts 269°
2026-05-04 18:37 51.47492 -0.47361 92 ft 24 kts 270°
2026-05-04 18:37 51.47489 -0.47628 94 ft 24 kts 270°
2026-05-04 18:37 51.47489 -0.47891 95 ft 23 kts 270°
2026-05-04 18:37 51.47489 -0.48148 95 ft 23 kts 270°
2026-05-04 18:38 51.47465 -0.48343 96 ft 14 kts 214°
2026-05-04 18:38 51.47369 -0.48359 95 ft 15 kts 179°
2026-05-04 18:38 51.47254 -0.48358 95 ft 17 kts 180°
2026-05-04 18:38 51.47128 -0.48357 95 ft 19 kts 179°
2026-05-04 18:39 51.46988 -0.48355 96 ft 21 kts 180°
2026-05-04 18:39 51.46882 -0.48355 96 ft 15 kts 180°
2026-05-04 18:39 51.46850 -0.48355 93 ft 0 kts 179°
2026-05-04 18:52 51.46844 -0.48355 94 ft 7 kts 179°
2026-05-04 18:52 51.46758 -0.48313 96 ft 15 kts 123°
2026-05-04 18:52 51.46692 -0.48209 95 ft 13 kts 167°
2026-05-04 18:53 51.46612 -0.48213 93 ft 0 kts 179°
2026-05-04 18:55 51.46601 -0.48213 95 ft 8 kts 179°
2026-05-04 18:55 51.46528 -0.48211 94 ft 16 kts 177°
2026-05-04 18:56 51.46480 -0.48068 95 ft 22 kts 89°
2026-05-04 18:56 51.46482 -0.47469 94 ft 90 kts 90°
2026-05-04 18:56 51.46486 -0.46104 98 ft 152 kts 89°
2026-05-04 18:56 51.46503 -0.44303 658 ft 164 kts 88°
2026-05-04 18:57 51.46569 -0.42445 1399 ft 170 kts 79°
2026-05-04 18:57 51.47089 -0.40663 1699 ft 188 kts 53°
2026-05-04 18:57 51.48011 -0.38984 1904 ft 214 kts 46°
2026-05-04 18:57 51.49106 -0.37176 2202 ft 235 kts 46°
2026-05-04 18:58 51.50257 -0.35258 2820 ft 242 kts 46°
2026-05-04 18:58 51.51389 -0.33200 3455 ft 249 kts 55°
2026-05-04 18:58 51.52156 -0.30681 4081 ft 255 kts 68°
2026-05-04 18:58 51.52754 -0.27978 4768 ft 260 kts 71°
2026-05-04 18:59 51.53344 -0.25188 5372 ft 266 kts 71°
2026-05-04 18:59 51.54132 -0.22477 5833 ft 269 kts 55°
2026-05-04 18:59 51.55505 -0.20474 6004 ft 269 kts 30°
2026-05-04 18:59 51.57204 -0.19187 5992 ft 271 kts 22°
2026-05-04 19:00 51.58945 -0.18103 6023 ft 272 kts 17°
2026-05-04 19:00 51.60767 -0.17223 6037 ft 273 kts 14°
2026-05-04 19:00 51.62607 -0.16397 6293 ft 276 kts 14°
2026-05-04 19:00 51.64462 -0.15557 6912 ft 278 kts 14°
2026-05-04 19:01 51.66331 -0.14701 7602 ft 280 kts 14°
2026-05-04 19:01 51.68215 -0.13802 8263 ft 283 kts 18°
2026-05-04 19:01 51.69976 -0.12351 8907 ft 289 kts 35°
2026-05-04 19:01 51.71443 -0.10087 9544 ft 295 kts 48°
2026-05-04 19:02 51.72712 -0.07473 10240 ft 297 kts 54°
2026-05-04 19:02 51.73888 -0.04639 10576 ft 311 kts 57°
2026-05-04 19:02 51.75042 -0.01627 10814 ft 328 kts 58°
2026-05-04 19:02 51.76242 0.01582 11059 ft 341 kts 58°
2026-05-04 19:03 51.77495 0.04908 11429 ft 351 kts 58°
2026-05-04 19:03 51.78786 0.08279 11961 ft 354 kts 58°
2026-05-04 19:03 51.80100 0.11657 12532 ft 357 kts 57°
2026-05-04 19:03 51.81436 0.15060 13079 ft 360 kts 57°
2026-05-04 19:04 51.82792 0.18498 13511 ft 366 kts 57°
2026-05-04 19:04 51.84169 0.21982 14008 ft 369 kts 57°
2026-05-04 19:04 51.85553 0.25486 14525 ft 371 kts 57°
2026-05-04 19:04 51.86948 0.29027 14938 ft 376 kts 57°
2026-05-04 19:05 51.88356 0.32610 15424 ft 378 kts 57°
2026-05-04 19:05 51.89772 0.36219 15877 ft 382 kts 58°
2026-05-04 19:05 51.91204 0.39875 16350 ft 385 kts 58°
2026-05-04 19:05 51.92639 0.43548 16849 ft 387 kts 58°
2026-05-04 19:06 51.94086 0.47253 17312 ft 390 kts 58°
2026-05-04 19:06 51.95538 0.50979 17811 ft 393 kts 58°
2026-05-04 19:06 51.97003 0.54743 18264 ft 396 kts 58°
2026-05-04 19:06 51.98477 0.58537 18670 ft 399 kts 58°
2026-05-04 19:07 51.99961 0.62359 19073 ft 402 kts 58°
2026-05-04 19:07 52.01452 0.66207 19482 ft 404 kts 58°
2026-05-04 19:07 52.02953 0.70086 19891 ft 406 kts 58°
2026-05-04 19:07 52.04458 0.73982 20298 ft 409 kts 58°
2026-05-04 19:08 52.05983 0.77936 20580 ft 415 kts 58°
2026-05-04 19:08 52.07525 0.81939 20938 ft 419 kts 58°
2026-05-04 19:08 52.09054 0.85914 21327 ft 421 kts 58°
2026-05-04 19:08 52.10611 0.89969 21706 ft 424 kts 58°
2026-05-04 19:09 52.12178 0.94057 22079 ft 427 kts 58°
2026-05-04 19:09 52.13752 0.98168 22437 ft 430 kts 58°
2026-05-04 19:09 52.15333 1.02307 22871 ft 430 kts 58°
2026-05-04 19:09 52.16915 1.06452 23272 ft 432 kts 58°
2026-05-04 19:10 52.18505 1.10628 23624 ft 435 kts 58°
2026-05-04 19:10 52.20104 1.14835 23916 ft 437 kts 58°
2026-05-04 19:10 52.21710 1.19065 24247 ft 439 kts 58°
2026-05-04 19:10 52.23324 1.23325 24571 ft 441 kts 58°
2026-05-04 19:11 52.24937 1.27588 24898 ft 443 kts 59°
2026-05-04 19:11 52.26558 1.31880 25231 ft 445 kts 59°
2026-05-04 19:11 52.28160 1.36132 25566 ft 447 kts 58°
2026-05-04 19:11 52.29801 1.40490 25772 ft 452 kts 58°
2026-05-04 19:12 52.31451 1.44881 26108 ft 454 kts 58°
2026-05-04 19:12 52.35227 1.53166 26927 ft 456 kts 48°
2026-05-04 19:12 52.37379 1.56989 27317 ft 458 kts 46°
2026-05-04 19:13 52.39590 1.60766 27699 ft 461 kts 46°
2026-05-04 19:13 52.41837 1.64534 28105 ft 463 kts 45°
2026-05-04 19:13 52.44101 1.68309 28515 ft 466 kts 45°
2026-05-04 19:13 52.46375 1.72107 28922 ft 468 kts 46°
2026-05-04 19:14 52.48661 1.75942 29337 ft 471 kts 46°
2026-05-04 19:14 52.50959 1.79814 29757 ft 474 kts 46°
2026-05-04 19:14 52.53265 1.83716 30140 ft 477 kts 46°
2026-05-04 19:14 52.55578 1.87642 30483 ft 480 kts 46°
2026-05-04 19:15 52.57903 1.91593 30837 ft 482 kts 46°
2026-05-04 19:15 52.60237 1.95566 31175 ft 485 kts 46°
2026-05-04 19:15 52.62586 1.99576 31528 ft 487 kts 46°
2026-05-04 19:15 52.64914 2.03558 31814 ft 490 kts 46°
2026-05-04 19:16 52.67290 2.07629 32099 ft 494 kts 46°
2026-05-04 19:16 52.69675 2.11720 32430 ft 496 kts 46°
2026-05-04 19:16 52.72066 2.15829 32754 ft 497 kts 46°
2026-05-04 19:16 52.74464 2.19957 33059 ft 499 kts 46°
2026-05-04 19:17 52.76869 2.24103 33431 ft 500 kts 46°
2026-05-04 19:17 52.79278 2.28263 33765 ft 501 kts 46°
2026-05-04 19:17 52.81690 2.32434 34052 ft 503 kts 45°
2026-05-04 19:17 52.84107 2.36623 34319 ft 503 kts 46°
2026-05-04 19:18 52.86525 2.40820 34646 ft 503 kts 46°
2026-05-04 19:18 52.88935 2.45011 34955 ft 503 kts 46°
2026-05-04 19:18 52.91348 2.49214 35243 ft 503 kts 46°
2026-05-04 19:18 52.93758 2.53419 35550 ft 503 kts 46°
2026-05-04 19:19 52.96193 2.57595 35719 ft 506 kts 43°
2026-05-04 19:19 52.98890 2.61362 35931 ft 507 kts 35°
2026-05-04 19:19 53.01860 2.64440 36391 ft 501 kts 28°
2026-05-04 19:19 53.04930 2.67204 36760 ft 500 kts 26°
2026-05-04 19:20 53.07984 2.69813 37003 ft 501 kts 25°
2026-05-04 19:20 53.11107 2.72406 37272 ft 501 kts 25°
2026-05-04 19:20 53.14241 2.74981 37532 ft 501 kts 25°
2026-05-04 19:20 53.17362 2.77546 37791 ft 502 kts 25°
2026-05-04 19:21 53.20494 2.80132 38071 ft 502 kts 25°
2026-05-04 19:21 53.23623 2.82731 38348 ft 502 kts 25°
2026-05-04 19:21 53.26753 2.85344 38649 ft 501 kts 25°
2026-05-04 19:21 53.29867 2.87948 38867 ft 501 kts 25°
2026-05-04 19:22 53.33004 2.90480 39051 ft 501 kts 24°
2026-05-04 19:22 53.36166 2.92949 39222 ft 501 kts 24°
2026-05-04 19:22 53.39331 2.95392 39412 ft 501 kts 24°
2026-05-04 19:22 53.42452 2.97802 39589 ft 501 kts 24°
2026-05-04 19:23 53.45612 3.00256 39768 ft 501 kts 24°
2026-05-04 19:23 53.48771 3.02726 39945 ft 501 kts 24°
2026-05-04 19:23 53.51928 3.05208 40109 ft 501 kts 24°
2026-05-04 19:23 53.55075 3.07692 40268 ft 501 kts 24°
2026-05-04 19:24 53.58230 3.10190 40423 ft 501 kts 24°
2026-05-04 19:24 53.61384 3.12694 40560 ft 501 kts 24°
2026-05-04 19:24 53.64547 3.15208 40648 ft 503 kts 24°
2026-05-04 19:24 53.67705 3.17722 40783 ft 503 kts 24°
2026-05-04 19:25 53.70867 3.20244 40952 ft 502 kts 24°
2026-05-04 19:25 53.77184 3.25292 41053 ft 502 kts 24°
2026-05-04 19:26 53.83499 3.30355 41053 ft 502 kts 24°
2026-05-04 19:26 53.89810 3.35432 41055 ft 502 kts 24°
2026-05-04 19:27 53.96077 3.40490 41058 ft 502 kts 24°
2026-05-04 19:27 54.02381 3.45596 41058 ft 501 kts 24°
2026-05-04 19:28 54.08670 3.50707 41055 ft 501 kts 24°
2026-05-04 19:28 54.14964 3.55839 41053 ft 501 kts 24°
2026-05-04 19:29 54.20192 3.60115 41063 ft 501 kts 24°
2026-05-04 19:29 54.27495 3.66109 41052 ft 500 kts 24°
2026-05-04 19:30 54.32753 3.70438 41056 ft 500 kts 24°
2026-05-04 19:30 54.38998 3.75597 41054 ft 501 kts 24°
2026-05-04 19:31 54.45281 3.80805 41066 ft 501 kts 24°
2026-05-04 19:31 54.51561 3.86028 41052 ft 501 kts 24°
2026-05-04 19:32 54.57842 3.91270 41049 ft 501 kts 24°